Regional Weather Roundup
Issued by NWS Cleveland, OH

Home | Current Version | Previous Version | Text Only | Print | Product List | Glossary Off
Versions: 1 2 3 4 5 6 7 8 9 10 11 12 13 14 15 16 17 18 19 20 21 22 23 24 25 26 27 28 29 30 31 32 33 34 35 36 37 38 39 40 41 42 43 44 45 46 47 48 49 50

000
ASUS41 KCLE 040902
RWRCLE
OHIO REGIONAL WEATHER ROUNDUP
NATIONAL WEATHER SERVICE CLEVELAND, OH
400 AM EST SUN DEC 04 2016

NOTE: "FAIR" INDICATES FEW OR NO CLOUDS BELOW 12,000 FEET WITH NO
SIGNIFICANT WEATHER AND/OR OBSTRUCTIONS TO VISIBILITY.

OHZ001>008-015>018-024>027-034-035-043-044-041000-
   NORTHWEST OHIO

CITY           SKY/WX    TMP DP  RH WIND       PRES   REMARKS
DEFIANCE       CLOUDY    35  28  75 CALM      30.26F
FINDLAY        CLOUDY    34  26  72 CALM      30.25F
TOLEDO EXPRESS CLOUDY    33  28  81 CALM      30.26F
TOLEDO EXEC    CLOUDY    35  29  78 S3        30.28F
LIMA           CLOUDY    33  28  81 E5        30.25F WCI  29
$$

OHZ009>014-019>023-028>033-038-089-041000-
   NORTHEAST OHIO

CITY           SKY/WX    TMP DP  RH WIND       PRES   REMARKS
CLE-HOPKINS    CLOUDY    36  27  69 S5        30.28F
CLE-LAKEFRONT  CLOUDY    38  26  62 SE6       30.26F
CUY CO. ARPT   NOT AVBL
LORAIN-ELYRIA  CLOUDY    33  27  78 S3        30.27F
ASHTABULA      CLOUDY    35  29  78 W5        30.26F
AKRON-CANTON   CLOUDY    35  25  66 E3        30.25F
WOOSTER        CLOUDY    32  27  81 CALM      30.26F
MANSFIELD      CLOUDY    32  28  85 CALM      30.24F
YOUNGSTOWN     CLOUDY    34  27  75 SW5       30.25F WCI  30
$$

OHZ042-051>053-060>062-070>072-077>081-041000-
  SOUTHWEST OHIO

CITY           SKY/WX    TMP DP  RH WIND       PRES   REMARKS
CINC-COVINGTON CLOUDY    37  31  78 E6        30.21F
CINC-LUNKEN    CLOUDY    36  32  85 NE5       30.25F
HAMILTON       CLOUDY    35  30  82 E3        30.25F
DAYTON         CLOUDY    33  27  78 E6        30.23F WCI  28
WRIGHT-PAT AFB NOT AVBL
DAYTON GENERAL CLOUDY    35  27  72 E5        30.23F
WILMINGTON     CLOUDY    33  27  78 E3        30.23F
$$

OHZ036-037-039>041-045>050-054>059-063>069-073>076-082>088-041000-
  CENTRAL AND SOUTHEAST OHIO

CITY           SKY/WX    TMP DP  RH WIND       PRES   REMARKS
COLUMBUS       CLOUDY    34  29  82 E5        30.25F WCI  30
OSU AIRPORT    CLOUDY    34  28  79 E3        30.25F
BOLTON FIELD   NOT AVBL
RICKENBACK AFB CLOUDY    32  29  89 CALM      30.26S
NEWARK         CLOUDY    34  27  75 CALM      30.26F
MARION         CLOUDY    33  27  78 CALM      30.26F
LANCASTER      CLOUDY    33  30  88 CALM      30.26F
ZANESVILLE     CLOUDY    34  27  75 E3        30.27F
NEW PHILLY     NOT AVBL
$$



USA.gov is the U.S. government's official web portal to all federal, state and local government web resources and services.